| << 24.8. | 26.8. >> |
|
Windrichtung in Grad |
Windgeschw. in m/s |
Windspitzen in m/s |
Temp.Minima in °C |
Temperatur in °C |
Temp.Maxima in °C |
Luftfeuchte in % |
Luftdruck in hPa |
Taupunkt in °C |
Niederschlag in mm |
|
|---|---|---|---|---|---|---|---|---|---|---|
| ▲ Maxima | 1,3 | 3,1 | 19,3 | 19,5 | 19,8 | 86,0 | 1003,8 | 13,3 | 0,0 | |
| Ø Mittelwert | 143,1 | 0,6 | 1,7 | 15,2 | 15,4 | 15,6 | 70,3 | 1002,2 | 11,3 | 0,0 |
| ▼ Minima | 0,1 | 0,4 | 10,7 | 10,9 | 11,2 | 55,3 | 1000,9 | 9,2 | 0,0 | |
| ∑ Summe | 0,0 |
| Uhrzeit (MEZ) | Windrichtung in Grad | Windgeschw. in m/s | Windspitzen in m/s | Temp.Minima in °C | Temperatur in °C | Temp.Maxima in °C | Luftfeuchte in % | Luftdruck in hPa | Taupunkt in °C | Niederschlag in mm |
|---|---|---|---|---|---|---|---|---|---|---|
| 00:00 | 258,0 | 0,3 | 0,6 | 12,7 | 13,0 | 13,4 | 72,7 | 1002,8 | 9,8 | 0,0 |
| 00:10 | 235,8 | 0,3 | 0,7 | 12,4 | 12,6 | 12,7 | 74,3 | 1002,7 | 9,7 | 0,0 |
| 00:20 | 156,2 | 0,3 | 1,0 | 12,5 | 12,6 | 12,8 | 74,2 | 1002,6 | 9,7 | 0,0 |
| 00:30 | 160,8 | 0,4 | 1,0 | 12,7 | 12,9 | 13,0 | 73,3 | 1002,7 | 9,7 | 0,0 |
| 00:40 | 240,8 | 0,2 | 0,8 | 12,3 | 12,5 | 12,9 | 74,8 | 1002,5 | 9,7 | 0,0 |
| 00:50 | 180,7 | 0,2 | 0,7 | 12,1 | 12,2 | 12,4 | 76,0 | 1002,4 | 9,7 | 0,0 |
| 01:00 | 118,8 | 0,2 | 0,8 | 12,2 | 12,3 | 12,4 | 75,3 | 1002,3 | 9,6 | 0,0 |
| 01:10 | 208,3 | 0,3 | 0,8 | 12,2 | 12,3 | 12,4 | 75,3 | 1002,3 | 9,7 | 0,0 |
| 01:20 | 229,9 | 0,1 | 0,7 | 12,0 | 12,1 | 12,3 | 76,0 | 1002,3 | 9,6 | 0,0 |
| 01:30 | 252,6 | 0,2 | 0,5 | 11,8 | 11,9 | 12,0 | 77,1 | 1002,2 | 9,7 | 0,0 |
| 01:40 | 246,5 | 0,6 | 1,1 | 11,5 | 11,7 | 11,9 | 77,9 | 1002,2 | 9,5 | 0,0 |
| 01:50 | 245,2 | 0,5 | 1,3 | 10,7 | 11,1 | 11,5 | 80,8 | 1002,2 | 9,5 | 0,0 |
| 02:00 | 101,3 | 0,2 | 1,0 | 10,8 | 10,9 | 11,2 | 81,6 | 1002,1 | 9,6 | 0,0 |
| 02:10 | 78,9 | 0,1 | 0,7 | 11,2 | 11,5 | 11,7 | 78,2 | 1002,0 | 9,5 | 0,0 |
| 02:20 | 86,4 | 0,3 | 0,8 | 11,7 | 11,8 | 11,9 | 76,6 | 1001,8 | 9,5 | 0,0 |
| 02:30 | 83,3 | 0,2 | 1,0 | 11,7 | 11,8 | 12,0 | 76,3 | 1001,8 | 9,4 | 0,0 |
| 02:40 | 76,7 | 0,3 | 1,6 | 11,7 | 11,8 | 12,1 | 76,2 | 1001,9 | 9,3 | 0,0 |
| 02:50 | 115,1 | 0,4 | 1,2 | 11,8 | 11,9 | 12,1 | 75,7 | 1001,8 | 9,4 | 0,0 |
| 03:00 | 125,5 | 0,3 | 1,0 | 11,8 | 11,9 | 12,1 | 75,4 | 1001,7 | 9,3 | 0,0 |
| 03:10 | 112,9 | 0,3 | 1,2 | 11,7 | 11,9 | 12,0 | 75,8 | 1001,5 | 9,3 | 0,0 |
| 03:20 | 103,2 | 0,4 | 1,2 | 11,9 | 12,0 | 12,2 | 75,4 | 1001,4 | 9,3 | 0,0 |
| 03:30 | 88,3 | 0,4 | 1,2 | 11,9 | 12,0 | 12,2 | 75,2 | 1001,5 | 9,3 | 0,0 |
| 03:40 | 112,7 | 0,6 | 1,7 | 11,8 | 12,0 | 12,3 | 75,3 | 1001,5 | 9,3 | 0,0 |
| 03:50 | 110,5 | 0,6 | 1,5 | 11,9 | 12,1 | 12,2 | 75,3 | 1001,4 | 9,3 | 0,0 |
| 04:00 | 122,4 | 0,4 | 1,5 | 11,8 | 11,9 | 12,2 | 75,5 | 1001,5 | 9,3 | 0,0 |
| 04:10 | 53,9 | 0,3 | 0,9 | 11,7 | 11,8 | 12,0 | 76,0 | 1001,4 | 9,3 | 0,0 |
| 04:20 | 44,6 | 0,3 | 1,1 | 11,6 | 11,7 | 11,9 | 76,4 | 1001,3 | 9,3 | 0,0 |
| 04:30 | 88,4 | 0,3 | 1,0 | 11,6 | 11,7 | 11,9 | 76,5 | 1001,3 | 9,3 | 0,0 |
| 04:40 | 99,7 | 0,2 | 0,8 | 11,6 | 11,6 | 11,8 | 76,6 | 1001,2 | 9,3 | 0,0 |
| 04:50 | 143,8 | 0,5 | 1,5 | 11,6 | 11,7 | 12,0 | 76,5 | 1001,3 | 9,3 | 0,0 |
| 05:00 | 41,4 | 0,3 | 0,8 | 11,4 | 11,6 | 11,7 | 76,7 | 1001,2 | 9,2 | 0,0 |
| 05:10 | 85,6 | 0,4 | 1,0 | 11,3 | 11,5 | 11,6 | 77,8 | 1001,1 | 9,3 | 0,0 |
| 05:20 | 81,2 | 0,3 | 0,8 | 11,2 | 11,4 | 11,5 | 78,1 | 1001,1 | 9,3 | 0,0 |
| 05:30 | 197,9 | 0,1 | 0,6 | 11,3 | 11,3 | 11,4 | 78,4 | 1001,0 | 9,4 | 0,0 |
| 05:40 | 186,5 | 0,1 | 0,7 | 11,1 | 11,2 | 11,3 | 79,3 | 1001,0 | 9,4 | 0,0 |
| 05:50 | 274,2 | 0,1 | 0,4 | 11,2 | 11,4 | 11,6 | 79,2 | 1000,9 | 9,6 | 0,0 |
| 06:00 | 239,4 | 0,1 | 0,5 | 11,4 | 11,5 | 11,6 | 78,9 | 1000,9 | 9,6 | 0,0 |
| 06:10 | 266,2 | 0,2 | 0,6 | 11,5 | 11,7 | 11,8 | 78,8 | 1000,9 | 9,8 | 0,0 |
| 06:20 | 251,5 | 0,3 | 0,6 | 11,2 | 11,4 | 11,7 | 80,0 | 1000,9 | 9,7 | 0,0 |
| 06:30 | 230,6 | 0,3 | 0,6 | 11,2 | 11,3 | 11,4 | 80,7 | 1001,1 | 9,7 | 0,0 |
| 06:40 | 262,3 | 0,3 | 0,6 | 11,3 | 11,4 | 11,4 | 81,7 | 1001,2 | 10,0 | 0,0 |
| 06:50 | 250,0 | 0,2 | 0,5 | 11,2 | 11,3 | 11,4 | 82,8 | 1001,4 | 10,1 | 0,0 |
| 07:00 | 211,5 | 0,2 | 0,7 | 11,3 | 11,5 | 11,8 | 82,6 | 1001,4 | 10,3 | 0,0 |
| 07:10 | 341,9 | 0,2 | 0,7 | 11,7 | 12,0 | 12,4 | 81,2 | 1001,4 | 10,6 | 0,0 |
| 07:20 | 37,5 | 0,4 | 1,0 | 12,3 | 12,7 | 13,1 | 78,2 | 1001,4 | 10,5 | 0,0 |
| 07:30 | 52,5 | 0,5 | 1,2 | 13,0 | 13,3 | 13,8 | 75,1 | 1001,5 | 10,5 | 0,0 |
| 07:40 | 43,6 | 0,8 | 1,5 | 13,6 | 13,8 | 13,9 | 73,0 | 1001,5 | 10,4 | 0,0 |
| 07:50 | 33,3 | 0,6 | 1,3 | 13,6 | 13,9 | 14,1 | 73,4 | 1001,5 | 10,6 | 0,0 |
| Uhrzeit (MEZ) | Windrichtung in Grad | Windgeschw. in m/s | Windspitzen in m/s | Temp.Minima in °C | Temperatur in °C | Temp.Maxima in °C | Luftfeuchte in % | Luftdruck in hPa | Taupunkt in °C | Niederschlag in mm |
|---|---|---|---|---|---|---|---|---|---|---|
| 08:00 | 86,4 | 0,8 | 2,3 | 13,9 | 14,5 | 14,9 | 70,5 | 1001,5 | 10,5 | 0,0 |
| 08:10 | 33,7 | 0,7 | 2,8 | 14,6 | 14,9 | 15,2 | 68,4 | 1001,4 | 10,5 | 0,0 |
| 08:20 | 53,7 | 1,1 | 3,0 | 14,7 | 15,1 | 15,3 | 67,7 | 1001,4 | 10,4 | 0,0 |
| 08:30 | 78,4 | 0,9 | 2,9 | 14,7 | 15,2 | 15,7 | 66,4 | 1001,5 | 10,3 | 0,0 |
| 08:40 | 88,1 | 1,0 | 2,8 | 15,6 | 15,8 | 16,2 | 64,2 | 1001,5 | 10,3 | 0,0 |
| 08:50 | 73,8 | 0,9 | 2,6 | 15,5 | 15,8 | 16,1 | 64,3 | 1001,5 | 10,3 | 0,0 |
| 09:00 | 67,1 | 1,2 | 3,0 | 15,5 | 15,8 | 16,1 | 64,4 | 1001,5 | 10,3 | 0,0 |
| 09:10 | 7,8 | 0,8 | 2,3 | 15,5 | 15,8 | 16,3 | 64,2 | 1001,6 | 10,3 | 0,0 |
| 09:20 | 116,6 | 1,0 | 3,1 | 15,8 | 16,0 | 16,3 | 63,8 | 1001,6 | 10,4 | 0,0 |
| 09:30 | 95,6 | 0,7 | 2,8 | 15,8 | 16,2 | 16,6 | 64,0 | 1001,6 | 10,7 | 0,0 |
| 09:40 | 103,6 | 0,7 | 2,0 | 16,1 | 16,4 | 16,7 | 63,4 | 1001,6 | 10,7 | 0,0 |
| 09:50 | 137,8 | 0,9 | 2,0 | 16,3 | 16,5 | 16,8 | 63,6 | 1001,6 | 10,9 | 0,0 |
| 10:00 | 145,7 | 0,8 | 2,2 | 16,3 | 16,6 | 16,8 | 63,1 | 1001,6 | 10,8 | 0,0 |
| 10:10 | 146,2 | 0,6 | 1,9 | 16,6 | 16,8 | 17,0 | 62,6 | 1001,6 | 10,9 | 0,0 |
| 10:20 | 117,8 | 0,6 | 1,7 | 16,9 | 17,2 | 17,6 | 61,6 | 1001,6 | 11,0 | 0,0 |
| 10:30 | 140,4 | 0,6 | 1,6 | 17,2 | 17,6 | 17,9 | 60,7 | 1001,6 | 11,2 | 0,0 |
| 10:40 | 141,0 | 0,6 | 2,4 | 17,7 | 18,1 | 18,6 | 59,9 | 1001,7 | 11,4 | 0,0 |
| 10:50 | 144,7 | 0,9 | 2,7 | 18,5 | 18,8 | 19,1 | 57,6 | 1001,6 | 11,3 | 0,0 |
| 11:00 | 136,8 | 1,0 | 2,4 | 18,5 | 18,9 | 19,1 | 56,7 | 1001,7 | 11,2 | 0,0 |
| 11:10 | 134,6 | 0,9 | 2,4 | 18,5 | 18,7 | 19,0 | 57,1 | 1001,7 | 11,2 | 0,0 |
| 11:20 | 136,2 | 0,8 | 2,0 | 18,6 | 18,7 | 19,1 | 57,4 | 1001,7 | 11,3 | 0,0 |
| 11:30 | 148,2 | 0,8 | 2,7 | 18,7 | 19,0 | 19,3 | 56,4 | 1001,7 | 11,3 | 0,0 |
| 11:40 | 133,5 | 0,9 | 2,3 | 19,0 | 19,3 | 19,6 | 56,0 | 1001,6 | 11,4 | 0,0 |
| 11:50 | 132,8 | 0,8 | 2,4 | 19,1 | 19,4 | 19,6 | 55,8 | 1001,6 | 11,4 | 0,0 |
| 12:00 | 131,7 | 0,8 | 2,5 | 19,2 | 19,4 | 19,8 | 55,4 | 1001,5 | 11,4 | 0,0 |
| 12:10 | 139,3 | 0,9 | 2,6 | 19,3 | 19,5 | 19,8 | 55,3 | 1001,6 | 11,4 | 0,0 |
| 12:20 | 138,2 | 1,0 | 2,5 | 19,0 | 19,2 | 19,5 | 56,0 | 1001,6 | 11,3 | 0,0 |
| 12:30 | 141,1 | 0,9 | 2,6 | 19,0 | 19,2 | 19,5 | 56,0 | 1001,7 | 11,3 | 0,0 |
| 12:40 | 145,3 | 1,1 | 3,0 | 19,0 | 19,2 | 19,4 | 55,9 | 1001,7 | 11,2 | 0,0 |
| 12:50 | 142,5 | 0,9 | 2,7 | 18,9 | 19,1 | 19,4 | 56,4 | 1001,8 | 11,3 | 0,0 |
| 13:00 | 141,2 | 1,0 | 2,7 | 18,9 | 19,2 | 19,4 | 56,6 | 1001,8 | 11,4 | 0,0 |
| 13:10 | 139,2 | 1,2 | 2,7 | 18,6 | 18,9 | 19,3 | 57,3 | 1001,8 | 11,3 | 0,0 |
| 13:20 | 137,4 | 0,8 | 2,3 | 18,5 | 18,7 | 19,0 | 57,7 | 1001,8 | 11,4 | 0,0 |
| 13:30 | 145,7 | 0,7 | 2,2 | 18,6 | 18,8 | 19,1 | 58,1 | 1001,9 | 11,6 | 0,0 |
| 13:40 | 155,5 | 0,7 | 2,8 | 18,7 | 18,9 | 19,2 | 57,9 | 1001,9 | 11,6 | 0,0 |
| 13:50 | 139,6 | 0,8 | 2,3 | 18,8 | 19,0 | 19,3 | 58,0 | 1001,9 | 11,7 | 0,0 |
| 14:00 | 134,7 | 0,6 | 1,8 | 18,6 | 18,9 | 19,1 | 58,8 | 1001,9 | 11,9 | 0,0 |
| 14:10 | 145,4 | 0,8 | 2,0 | 18,7 | 19,0 | 19,2 | 59,8 | 1001,9 | 12,2 | 0,0 |
| 14:20 | 171,1 | 0,8 | 2,0 | 18,7 | 18,9 | 19,2 | 60,7 | 1002,0 | 12,3 | 0,0 |
| 14:30 | 142,4 | 1,0 | 2,1 | 18,6 | 18,9 | 19,1 | 61,6 | 1002,0 | 12,5 | 0,0 |
| 14:40 | 148,9 | 1,2 | 3,1 | 18,4 | 18,7 | 19,0 | 63,0 | 1002,0 | 12,6 | 0,0 |
| 14:50 | 142,8 | 0,9 | 2,5 | 18,0 | 18,2 | 18,5 | 64,7 | 1002,1 | 12,6 | 0,0 |
| 15:00 | 158,1 | 0,7 | 2,1 | 17,9 | 18,2 | 18,5 | 65,2 | 1002,1 | 12,8 | 0,0 |
| 15:10 | 154,6 | 1,0 | 2,6 | 17,9 | 18,3 | 18,6 | 64,0 | 1002,2 | 12,5 | 0,0 |
| 15:20 | 141,2 | 0,9 | 2,5 | 17,8 | 18,1 | 18,3 | 63,2 | 1002,2 | 12,2 | 0,0 |
| 15:30 | 137,5 | 0,9 | 2,7 | 18,1 | 18,3 | 18,6 | 61,8 | 1002,3 | 12,1 | 0,0 |
| 15:40 | 141,1 | 1,0 | 2,5 | 17,9 | 18,2 | 18,4 | 62,2 | 1002,4 | 12,0 | 0,0 |
| 15:50 | 130,4 | 0,9 | 2,1 | 17,9 | 18,2 | 18,4 | 63,1 | 1002,4 | 12,2 | 0,0 |
| Uhrzeit (MEZ) | Windrichtung in Grad | Windgeschw. in m/s | Windspitzen in m/s | Temp.Minima in °C | Temperatur in °C | Temp.Maxima in °C | Luftfeuchte in % | Luftdruck in hPa | Taupunkt in °C | Niederschlag in mm |
|---|---|---|---|---|---|---|---|---|---|---|
| 16:00 | 144,7 | 0,9 | 2,0 | 17,9 | 18,2 | 18,5 | 63,1 | 1002,4 | 12,3 | 0,0 |
| 16:10 | 132,6 | 0,7 | 2,4 | 18,0 | 18,2 | 18,6 | 62,7 | 1002,4 | 12,3 | 0,0 |
| 16:20 | 164,7 | 0,8 | 2,2 | 18,2 | 18,4 | 18,7 | 62,1 | 1002,4 | 12,3 | 0,0 |
| 16:30 | 136,6 | 0,8 | 2,6 | 18,2 | 18,5 | 18,7 | 62,2 | 1002,4 | 12,3 | 0,0 |
| 16:40 | 120,2 | 0,7 | 2,3 | 18,0 | 18,2 | 18,6 | 63,3 | 1002,3 | 12,4 | 0,0 |
| 16:50 | 149,9 | 0,7 | 1,9 | 18,1 | 18,3 | 18,6 | 63,8 | 1002,3 | 12,6 | 0,0 |
| 17:00 | 149,7 | 0,7 | 2,2 | 18,2 | 18,4 | 18,7 | 64,0 | 1002,3 | 12,8 | 0,0 |
| 17:10 | 130,6 | 0,9 | 2,1 | 18,1 | 18,3 | 18,6 | 64,3 | 1002,3 | 12,7 | 0,0 |
| 17:20 | 164,8 | 0,7 | 1,9 | 18,1 | 18,3 | 18,6 | 64,0 | 1002,3 | 12,7 | 0,0 |
| 17:30 | 157,6 | 0,6 | 1,4 | 18,2 | 18,4 | 18,6 | 64,3 | 1002,3 | 12,9 | 0,0 |
| 17:40 | 148,1 | 0,7 | 1,9 | 18,3 | 18,5 | 18,7 | 64,8 | 1002,4 | 13,0 | 0,0 |
| 17:50 | 151,3 | 0,8 | 2,0 | 18,1 | 18,3 | 18,6 | 65,4 | 1002,3 | 13,0 | 0,0 |
| 18:00 | 144,0 | 0,7 | 2,0 | 18,0 | 18,2 | 18,5 | 66,5 | 1002,3 | 13,2 | 0,0 |
| 18:10 | 140,0 | 0,7 | 1,7 | 17,9 | 18,1 | 18,3 | 67,4 | 1002,3 | 13,3 | 0,0 |
| 18:20 | 135,2 | 1,0 | 3,0 | 17,7 | 18,0 | 18,3 | 66,9 | 1002,4 | 13,0 | 0,0 |
| 18:30 | 134,9 | 1,0 | 2,2 | 17,6 | 17,8 | 18,1 | 66,9 | 1002,5 | 12,8 | 0,0 |
| 18:40 | 138,9 | 1,0 | 2,1 | 17,4 | 17,6 | 17,9 | 67,2 | 1002,5 | 12,7 | 0,0 |
| 18:50 | 129,5 | 1,2 | 2,9 | 17,3 | 17,5 | 17,7 | 68,0 | 1002,6 | 12,7 | 0,0 |
| 19:00 | 135,5 | 1,0 | 2,7 | 16,9 | 17,2 | 17,5 | 68,2 | 1002,8 | 12,5 | 0,0 |
| 19:10 | 133,3 | 1,3 | 2,8 | 16,9 | 17,1 | 17,3 | 68,9 | 1002,9 | 12,5 | 0,0 |
| 19:20 | 140,7 | 1,1 | 2,8 | 16,6 | 16,9 | 17,1 | 69,6 | 1002,9 | 12,5 | 0,0 |
| 19:30 | 132,9 | 0,9 | 2,1 | 16,5 | 16,7 | 16,9 | 70,4 | 1003,0 | 12,6 | 0,0 |
| 19:40 | 125,8 | 0,7 | 1,9 | 16,3 | 16,5 | 16,8 | 71,3 | 1003,2 | 12,7 | 0,0 |
| 19:50 | 133,8 | 0,9 | 2,1 | 16,3 | 16,5 | 16,8 | 72,2 | 1003,2 | 12,8 | 0,0 |
| 20:00 | 140,4 | 0,6 | 1,4 | 16,2 | 16,3 | 16,5 | 72,9 | 1003,3 | 12,9 | 0,0 |
| 20:10 | 146,4 | 0,6 | 1,5 | 16,1 | 16,3 | 16,5 | 73,4 | 1003,4 | 13,0 | 0,0 |
| 20:20 | 147,9 | 0,7 | 1,8 | 16,1 | 16,3 | 16,5 | 73,8 | 1003,4 | 13,0 | 0,0 |
| 20:30 | 160,1 | 0,6 | 1,4 | 16,0 | 16,2 | 16,4 | 74,1 | 1003,4 | 13,0 | 0,0 |
| 20:40 | 148,3 | 0,6 | 1,3 | 15,9 | 16,1 | 16,3 | 74,8 | 1003,5 | 13,1 | 0,0 |
| 20:50 | 127,3 | 0,6 | 1,4 | 15,8 | 16,0 | 16,2 | 74,9 | 1003,5 | 13,0 | 0,0 |
| 21:00 | 131,7 | 0,7 | 1,7 | 15,6 | 15,9 | 16,0 | 75,6 | 1003,5 | 13,0 | 0,0 |
| 21:10 | 150,7 | 0,4 | 1,6 | 15,5 | 15,6 | 15,8 | 76,2 | 1003,6 | 12,9 | 0,0 |
| 21:20 | 127,1 | 0,3 | 1,0 | 15,3 | 15,5 | 15,7 | 77,1 | 1003,7 | 13,1 | 0,0 |
| 21:30 | 154,5 | 0,3 | 0,8 | 15,2 | 15,3 | 15,5 | 77,8 | 1003,7 | 13,0 | 0,0 |
| 21:40 | 242,8 | 0,2 | 0,6 | 14,8 | 15,1 | 15,3 | 78,6 | 1003,7 | 13,0 | 0,0 |
| 21:50 | 254,7 | 0,3 | 0,6 | 14,3 | 14,5 | 14,9 | 80,5 | 1003,7 | 12,8 | 0,0 |
| 22:00 | 249,6 | 0,1 | 0,4 | 14,1 | 14,1 | 14,3 | 82,1 | 1003,7 | 12,8 | 0,0 |
| 22:10 | 236,6 | 0,4 | 0,8 | 14,1 | 14,2 | 14,3 | 82,2 | 1003,6 | 12,8 | 0,0 |
| 22:20 | 236,2 | 0,6 | 0,8 | 13,7 | 13,9 | 14,2 | 83,1 | 1003,6 | 12,7 | 0,0 |
| 22:30 | 229,2 | 0,7 | 0,9 | 13,6 | 13,7 | 13,7 | 84,7 | 1003,6 | 12,7 | 0,0 |
| 22:40 | 242,6 | 0,5 | 0,9 | 13,2 | 13,4 | 13,6 | 85,3 | 1003,8 | 12,6 | 0,0 |
| 22:50 | 221,9 | 0,2 | 0,6 | 13,2 | 13,3 | 13,5 | 86,0 | 1003,7 | 12,7 | 0,0 |
| 23:00 | 240,5 | 0,2 | 0,7 | 13,4 | 13,6 | 13,7 | 85,4 | 1003,8 | 12,8 | 0,0 |
| 23:10 | 179,4 | 0,1 | 0,5 | 13,4 | 13,5 | 13,6 | 85,0 | 1003,8 | 12,8 | 0,0 |
| 23:20 | 193,1 | 0,2 | 0,5 | 13,6 | 13,7 | 13,8 | 84,7 | 1003,8 | 12,9 | 0,0 |
| 23:30 | 251,6 | 0,1 | 0,4 | 13,6 | 13,6 | 13,8 | 84,6 | 1003,7 | 12,8 | 0,0 |
| 23:40 | 191,3 | 0,2 | 0,6 | 13,6 | 13,7 | 13,9 | 84,5 | 1003,6 | 12,8 | 0,0 |
| 23:50 | 167,0 | 0,1 | 0,5 | 13,6 | 13,6 | 13,8 | 84,3 | 1003,7 | 12,8 | 0,0 |
| << 24.8. | 26.8. >> |